TimeCEST,TemperatureF,Dew PointF,Humidity,Sea Level PressureIn,VisibilityMPH,Wind Direction,Wind SpeedMPH,Gust SpeedMPH,PrecipitationIn,Events,Conditions,WindDirDegrees,DateUTC
12:00 AM,68.0,62.6,83,30.04,6.2,Calm,Calm,-,N/A,,Partly Cloudy,0,2012-10-04 22:00:00
12:30 AM,66.2,62.6,88,30.04,6.2,Calm,Calm,-,N/A,,Partly Cloudy,0,2012-10-04 22:30:00
1:00 AM,66.2,62.6,88,30.04,6.2,Variable,1.2,-,N/A,,Partly Cloudy,0,2012-10-04 23:00:00
1:30 AM,64.4,60.8,88,30.04,6.2,Variable,2.3,-,N/A,,Partly Cloudy,0,2012-10-04 23:30:00
2:00 AM,64,57,72,30.03,12,WNW,4.6,,,,Scattered Clouds,300,2012-10-05 00:00:00
2:00 AM,64.4,60.8,88,30.01,6.2,NW,3.5,-,N/A,,Partly Cloudy,310,2012-10-05 00:00:00
2:30 AM,64.4,59.0,83,30.04,6.2,Variable,2.3,-,N/A,,Partly Cloudy,0,2012-10-05 00:30:00
3:00 AM,62.6,57.2,82,30.01,6.2,West,4.6,-,N/A,,Partly Cloudy,260,2012-10-05 01:00:00
3:30 AM,64.4,57.2,77,30.01,6.2,West,5.8,-,N/A,,Partly Cloudy,280,2012-10-05 01:30:00
4:00 AM,62.6,59.0,88,30.01,6.2,West,6.9,-,N/A,,Partly Cloudy,270,2012-10-05 02:00:00
4:30 AM,64.4,59.0,83,30.01,6.2,West,5.8,-,N/A,,Partly Cloudy,280,2012-10-05 02:30:00
5:00 AM,64.4,59.0,83,30.01,6.2,West,6.9,-,N/A,,Partly Cloudy,270,2012-10-05 03:00:00
5:30 AM,64.4,59.0,83,30.01,6.2,WNW,6.9,-,N/A,,Partly Cloudy,290,2012-10-05 03:30:00
6:00 AM,64.4,57.2,77,30.01,6.2,WNW,6.9,-,N/A,,Partly Cloudy,290,2012-10-05 04:00:00
6:30 AM,64.4,57.2,77,30.01,6.2,West,6.9,-,N/A,,Partly Cloudy,280,2012-10-05 04:30:00
7:00 AM,62.6,57.2,82,30.01,6.2,West,3.5,-,N/A,,Partly Cloudy,280,2012-10-05 05:00:00
7:30 AM,64.4,57.2,77,30.01,6.2,West,6.9,-,N/A,,Partly Cloudy,280,2012-10-05 05:30:00
8:00 AM,63,53,63,30.03,19,West,5.8,,,,Clear,280,2012-10-05 06:00:00
8:00 AM,62.6,55.4,77,30.01,-9999.0,West,4.6,-,N/A,,Clear,280,2012-10-05 06:00:00
8:30 AM,62.6,57.2,82,30.04,6.2,Variable,2.3,-,N/A,,Partly Cloudy,0,2012-10-05 06:30:00
9:00 AM,64.4,59.0,83,30.04,6.2,Variable,2.3,-,N/A,,Partly Cloudy,0,2012-10-05 07:00:00
9:30 AM,68.0,59.0,73,30.04,6.2,Calm,Calm,-,N/A,,Partly Cloudy,0,2012-10-05 07:30:00
10:00 AM,71.6,59.0,64,30.06,6.2,Calm,Calm,-,N/A,,Partly Cloudy,0,2012-10-05 08:00:00
10:30 AM,73.4,57.2,57,30.06,-9999.0,Variable,1.2,-,N/A,,Clear,0,2012-10-05 08:30:00
11:00 AM,77.0,53.6,44,30.06,-9999.0,Calm,Calm,-,N/A,,Clear,0,2012-10-05 09:00:00
11:30 AM,78.8,57.2,47,30.06,-9999.0,Variable,1.2,-,N/A,,Clear,0,2012-10-05 09:30:00
12:00 PM,77.0,59.0,54,30.06,-9999.0,ESE,3.5,-,N/A,,Clear,120,2012-10-05 10:00:00
12:30 PM,80.6,59.0,48,30.06,-9999.0,Variable,1.2,-,N/A,,Clear,0,2012-10-05 10:30:00
1:00 PM,78.8,60.8,54,30.06,-9999.0,East,4.6,-,N/A,,Clear,100,2012-10-05 11:00:00
1:30 PM,78.8,62.6,57,30.06,-9999.0,ESE,5.8,-,N/A,,Clear,120,2012-10-05 11:30:00
2:00 PM,79,60,43,30.06,,ESE,6.9,,,,,120,2012-10-05 12:00:00
2:00 PM,78.8,64.4,61,30.06,-9999.0,ESE,5.8,-,N/A,,Clear,120,2012-10-05 12:00:00
2:30 PM,78.8,64.4,61,30.04,-9999.0,ESE,5.8,-,N/A,,Clear,120,2012-10-05 12:30:00
3:00 PM,78.8,64.4,61,30.04,-9999.0,SE,6.9,-,N/A,,Clear,140,2012-10-05 13:00:00
3:30 PM,78.8,66.2,65,30.04,-9999.0,SE,8.1,-,N/A,,Clear,130,2012-10-05 13:30:00
4:00 PM,78.8,66.2,65,30.04,-9999.0,ESE,8.1,-,N/A,,Clear,120,2012-10-05 14:00:00
4:30 PM,78.8,66.2,65,30.04,-9999.0,SE,6.9,-,N/A,,Clear,130,2012-10-05 14:30:00
5:00 PM,78.8,66.2,65,30.04,-9999.0,SE,6.9,-,N/A,,Clear,130,2012-10-05 15:00:00
5:30 PM,77.0,66.2,69,30.04,-9999.0,East,8.1,-,N/A,,Clear,100,2012-10-05 15:30:00
6:00 PM,77.0,66.2,69,30.04,-9999.0,ESE,5.8,-,N/A,,Clear,120,2012-10-05 16:00:00
6:30 PM,77.0,66.2,69,30.04,-9999.0,ESE,3.5,-,N/A,,Clear,120,2012-10-05 16:30:00
7:00 PM,75.2,68.0,78,30.04,-9999.0,ESE,4.6,-,N/A,,Clear,110,2012-10-05 17:00:00
7:30 PM,75.2,68.0,78,30.04,-9999.0,Variable,2.3,-,N/A,,Clear,0,2012-10-05 17:30:00
8:00 PM,74,64,65,30.04,12,SSE,2.3,,,,,160,2012-10-05 18:00:00
8:00 PM,73.4,68.0,83,30.04,-9999.0,Variable,1.2,-,N/A,,Clear,0,2012-10-05 18:00:00
8:30 PM,73.4,68.0,83,30.04,-9999.0,Variable,2.3,-,N/A,,Clear,0,2012-10-05 18:30:00
9:00 PM,71.6,68.0,88,30.06,-9999.0,SW,5.8,-,N/A,,Clear,230,2012-10-05 19:00:00
9:30 PM,71.6,68.0,88,30.06,-9999.0,WSW,4.6,-,N/A,,Clear,240,2012-10-05 19:30:00
10:00 PM,71.6,68.0,88,30.09,6.2,WSW,3.5,-,N/A,,Scattered Clouds,250,2012-10-05 20:00:00
10:30 PM,71.6,68.0,88,30.09,6.2,WSW,4.6,-,N/A,,Scattered Clouds,250,2012-10-05 20:30:00
11:00 PM,71.6,68.0,88,30.09,6.2,WSW,5.8,-,N/A,,Partly Cloudy,250,2012-10-05 21:00:00
11:30 PM,71.6,68.0,88,30.12,6.2,WSW,3.5,-,N/A,,Partly Cloudy,250,2012-10-05 21:30:00